Location: Clyde
(45.1830°S, 169.3170°E)
Time: 02:54:55
(UTC+13:00)

Cosmos 540 Rocket - Pass Details

Date: 24 January 2019
Orbit: 741 x 753 km, 74.1° (Epoch: 21 February)

Event Time Altitude Azimuth Distance (km) Brightness Sun altitude
Rises 22:07:09 0° 196° (SSW) 3,246 7.7 -7.5°
Reaches altitude 10° 22:09:43 10° 187° (S) 2,313 6.7 -7.8°
Maximum altitude 22:14:36 38° 119° (ESE) 1,151 4.3 -8.5°
Enters shadow 22:19:07 12° 52° (NE) 2,176 5.2 -9.1°
